TimeCDT,TemperatureF,Dew PointF,Humidity,Sea Level PressureIn,VisibilityMPH,Wind Direction,Wind SpeedMPH,Gust SpeedMPH,PrecipitationIn,Events,Conditions,WindDirDegrees,DateUTC
12:58 AM,78.4,69.3,73,30.06,10.0,East,4.6,-,N/A,,Clear,80,2013-08-26 05:58:00
1:58 AM,77.4,69.4,76,30.04,10.0,East,6.9,-,N/A,,Clear,80,2013-08-26 06:58:00
2:58 AM,75.9,69.4,80,30.04,10.0,ENE,4.6,-,N/A,,Clear,60,2013-08-26 07:58:00
3:58 AM,76.3,69.8,80,30.04,10.0,ENE,6.9,-,N/A,,Mostly Cloudy,60,2013-08-26 08:58:00
4:33 AM,77.0,69.8,78,30.07,10.0,ENE,8.1,-,N/A,,Mostly Cloudy,70,2013-08-26 09:33:00
4:38 AM,77.0,69.8,78,30.06,10.0,ENE,8.1,-,N/A,,Mostly Cloudy,70,2013-08-26 09:38:00
4:48 AM,77.0,69.8,78,30.06,10.0,NE,8.1,-,N/A,,Mostly Cloudy,50,2013-08-26 09:48:00
4:58 AM,76.3,70.0,81,30.04,10.0,NE,8.1,-,N/A,,Mostly Cloudy,50,2013-08-26 09:58:00
5:03 AM,77.0,69.8,78,30.07,10.0,NE,5.8,-,N/A,,Mostly Cloudy,50,2013-08-26 10:03:00
5:18 AM,77.0,69.8,78,30.07,10.0,NE,6.9,-,N/A,,Mostly Cloudy,50,2013-08-26 10:18:00
5:23 AM,77.0,69.8,78,30.07,10.0,NE,5.8,-,N/A,,Mostly Cloudy,50,2013-08-26 10:23:00
5:28 AM,77.0,69.8,78,30.07,10.0,NE,5.8,-,N/A,,Mostly Cloudy,50,2013-08-26 10:28:00
5:38 AM,77.0,69.8,78,30.07,10.0,ENE,6.9,-,N/A,,Mostly Cloudy,60,2013-08-26 10:38:00
5:43 AM,77.0,69.8,78,30.07,10.0,ENE,8.1,-,N/A,,Mostly Cloudy,60,2013-08-26 10:43:00
5:51 AM,77.0,69.8,78,30.07,10.0,ENE,9.2,-,N/A,,Light Drizzle,70,2013-08-26 10:51:00
5:56 AM,75.2,69.8,83,30.07,10.0,ENE,8.1,-,N/A,,Light Drizzle,60,2013-08-26 10:56:00
5:58 AM,75.9,70.7,84,30.04,10.0,ENE,9.2,-,0.00,,Light Drizzle,60,2013-08-26 10:58:00
6:01 AM,75.2,71.6,89,30.07,10.0,ENE,6.9,-,N/A,,Mostly Cloudy,60,2013-08-26 11:01:00
6:58 AM,76.1,71.2,85,30.06,10.0,NE,5.8,-,0.00,,Overcast,50,2013-08-26 11:58:00
7:58 AM,76.6,71.4,84,30.07,10.0,ENE,9.2,-,N/A,,Mostly Cloudy,70,2013-08-26 12:58:00
8:08 AM,77.0,71.6,83,30.10,10.0,ENE,6.9,-,N/A,,Mostly Cloudy,70,2013-08-26 13:08:00
8:13 AM,77.0,71.6,83,30.10,10.0,ENE,6.9,-,N/A,,Mostly Cloudy,70,2013-08-26 13:13:00
8:28 AM,77.0,71.6,83,30.10,10.0,East,10.4,-,N/A,,Mostly Cloudy,90,2013-08-26 13:28:00
8:58 AM,77.9,71.8,81,30.09,10.0,East,10.4,-,N/A,,Mostly Cloudy,80,2013-08-26 13:58:00
9:18 AM,78.8,71.6,78,30.11,10.0,East,11.5,-,N/A,,Mostly Cloudy,80,2013-08-26 14:18:00
9:58 AM,80.8,71.4,73,30.10,10.0,ENE,11.5,-,N/A,,Mostly Cloudy,70,2013-08-26 14:58:00
10:13 AM,82.4,71.6,70,30.12,10.0,East,10.4,-,N/A,,Mostly Cloudy,80,2013-08-26 15:13:00
10:28 AM,82.4,71.6,70,30.12,10.0,ENE,11.5,-,N/A,,Mostly Cloudy,70,2013-08-26 15:28:00
10:43 AM,82.4,69.8,66,30.12,10.0,ENE,11.5,-,N/A,,Mostly Cloudy,70,2013-08-26 15:43:00
10:58 AM,82.6,70.5,67,30.10,10.0,ENE,10.4,-,N/A,,Mostly Cloudy,70,2013-08-26 15:58:00
11:13 AM,82.4,69.8,66,30.12,10.0,East,9.2,-,N/A,,Scattered Clouds,80,2013-08-26 16:13:00
11:38 AM,84.2,69.8,62,30.12,10.0,NNE,8.1,-,N/A,,Mostly Cloudy,30,2013-08-26 16:38:00
11:58 AM,83.3,69.3,62,30.09,10.0,ENE,10.4,-,N/A,,Mostly Cloudy,60,2013-08-26 16:58:00
12:13 PM,84.2,68.0,58,30.11,10.0,Variable,6.9,-,N/A,,Scattered Clouds,0,2013-08-26 17:13:00
12:36 PM,87.8,68.0,52,30.08,10.0,ENE,12.7,-,N/A,,Mostly Cloudy,60,2013-08-26 17:36:00
12:58 PM,86.9,67.6,53,30.06,10.0,NE,11.5,-,N/A,,Mostly Cloudy,40,2013-08-26 17:58:00
1:58 PM,88.7,68.0,50,30.05,10.0,ENE,15.0,23.0,N/A,,Scattered Clouds,70,2013-08-26 18:58:00
2:58 PM,86.7,67.6,53,30.04,10.0,ENE,13.8,25.3,N/A,,Mostly Cloudy,70,2013-08-26 19:58:00
3:09 PM,82.4,69.8,66,30.06,10.0,ENE,10.4,-,N/A,,Light Drizzle,70,2013-08-26 20:09:00
3:58 PM,86.4,68.2,54,30.03,10.0,East,20.7,24.2,N/A,,Mostly Cloudy,80,2013-08-26 20:58:00
4:09 PM,82.4,69.8,66,30.05,10.0,ENE,15.0,-,N/A,Rain,Light Rain,70,2013-08-26 21:09:00
4:14 PM,80.6,68.0,65,30.05,10.0,ENE,10.4,21.9,N/A,,Light Drizzle,70,2013-08-26 21:14:00
4:19 PM,80.6,68.0,65,30.05,10.0,ENE,12.7,-,N/A,,Overcast,70,2013-08-26 21:19:00
4:29 PM,78.8,69.8,74,30.06,10.0,ESE,11.5,-,N/A,,Light Drizzle,110,2013-08-26 21:29:00
4:34 PM,78.8,71.6,78,30.06,10.0,East,11.5,-,N/A,,Scattered Clouds,100,2013-08-26 21:34:00
4:51 PM,78.8,69.8,74,30.06,10.0,East,10.4,-,N/A,,Light Drizzle,100,2013-08-26 21:51:00
4:52 PM,78.8,71.6,78,30.06,9.0,East,11.5,-,N/A,,Mostly Cloudy,100,2013-08-26 21:52:00
4:53 PM,78.8,71.6,78,30.06,8.0,East,10.4,-,N/A,Rain,Light Rain,90,2013-08-26 21:53:00
4:58 PM,78.4,71.8,80,30.04,5.0,East,9.2,-,0.00,Rain,Light Rain,90,2013-08-26 21:58:00
5:08 PM,77.0,73.4,89,30.06,9.0,ESE,8.1,-,N/A,,Light Drizzle,120,2013-08-26 22:08:00
5:35 PM,77.0,71.6,83,30.05,10.0,SE,5.8,-,N/A,,Partly Cloudy,130,2013-08-26 22:35:00
5:58 PM,76.3,72.0,86,30.04,10.0,SE,5.8,-,0.00,,Scattered Clouds,130,2013-08-26 22:58:00
6:48 PM,77.0,71.6,83,30.05,10.0,SE,5.8,-,N/A,,Mostly Cloudy,130,2013-08-26 23:48:00
6:53 PM,77.0,71.6,83,30.05,10.0,ESE,5.8,-,N/A,,Mostly Cloudy,110,2013-08-26 23:53:00
6:56 PM,77.0,71.6,83,30.05,9.0,East,5.8,-,N/A,,Light Drizzle,100,2013-08-26 23:56:00
6:58 PM,77.0,71.6,83,30.03,8.0,East,5.8,-,N/A,,Light Drizzle,90,2013-08-26 23:58:00
7:03 PM,77.0,71.6,83,30.05,8.0,East,4.6,-,N/A,,Light Drizzle,80,2013-08-27 00:03:00
7:25 PM,75.2,71.6,89,30.04,10.0,NE,3.5,-,N/A,,Scattered Clouds,50,2013-08-27 00:25:00
7:58 PM,75.2,72.7,92,30.02,10.0,ENE,4.6,-,0.00,,Scattered Clouds,70,2013-08-27 00:58:00
8:48 PM,75.2,71.6,89,30.05,10.0,ENE,6.9,-,N/A,,Mostly Cloudy,70,2013-08-27 01:48:00
8:53 PM,75.2,71.6,89,30.05,10.0,ENE,5.8,-,N/A,,Mostly Cloudy,70,2013-08-27 01:53:00
8:58 PM,75.0,72.0,90,30.03,10.0,ENE,6.9,-,N/A,,Mostly Cloudy,70,2013-08-27 01:58:00
9:13 PM,75.2,71.6,89,30.05,10.0,ENE,5.8,-,N/A,,Mostly Cloudy,70,2013-08-27 02:13:00
9:23 PM,75.2,71.6,89,30.06,10.0,East,6.9,-,N/A,,Mostly Cloudy,80,2013-08-27 02:23:00
9:28 PM,75.2,71.6,89,30.06,10.0,East,9.2,-,N/A,,Mostly Cloudy,90,2013-08-27 02:28:00
9:31 PM,75.2,71.6,89,30.06,10.0,East,10.4,-,N/A,,Overcast,90,2013-08-27 02:31:00
9:36 PM,75.2,71.6,89,30.06,10.0,East,10.4,-,N/A,,Overcast,100,2013-08-27 02:36:00
9:56 PM,73.4,71.6,94,30.06,10.0,ESE,11.5,-,N/A,,Overcast,110,2013-08-27 02:56:00
9:58 PM,73.4,71.6,94,30.04,10.0,ESE,12.7,-,N/A,,Overcast,110,2013-08-27 02:58:00
10:03 PM,73.4,71.6,94,30.06,10.0,ESE,11.5,-,N/A,,Overcast,120,2013-08-27 03:03:00
10:08 PM,73.4,71.6,94,30.06,10.0,ESE,11.5,-,N/A,,Overcast,120,2013-08-27 03:08:00
10:13 PM,73.4,71.6,94,30.06,10.0,ESE,12.7,-,N/A,,Overcast,120,2013-08-27 03:13:00
10:23 PM,73.4,69.8,88,30.06,10.0,ESE,10.4,-,N/A,,Overcast,120,2013-08-27 03:23:00
10:58 PM,74.1,70.7,89,30.06,10.0,SE,9.2,-,N/A,,Mostly Cloudy,140,2013-08-27 03:58:00
11:23 PM,73.4,71.6,94,30.08,10.0,SE,9.2,-,N/A,,Mostly Cloudy,140,2013-08-27 04:23:00
11:56 PM,73.4,71.6,94,30.07,10.0,SE,5.8,-,N/A,,Scattered Clouds,130,2013-08-27 04:56:00
11:58 PM,73.8,71.1,91,30.05,10.0,SE,6.9,-,N/A,,Scattered Clouds,130,2013-08-27 04:58:00